• In Deutschland
  • Länderverzeichnis
  • Für 7 Tage
  • Wassertemperatur
  • Satellitenkarten
  • Wetterkarte
  • Widgets
  • user-avatar
    Anmelden

    Stündliche Wetter Ostfildern

    Heute, 20 Juli, Freitag

    Zeit Temperatur Niederschläge Wind Luftdruck Luftfeuchtigkeit
    00:00 +19°C° 0 mm 1 m/S 731 mmHg 76%
    01:00 +19°C° 0 mm 1 m/S 731 mmHg 77%
    02:00 +18°C° 0 mm 1 m/S 731 mmHg 79%
    03:00 +18°C° 0 mm 1 m/S 731 mmHg 80%
    04:00 +18°C° 0 mm 1 m/S 731 mmHg 81%
    05:00 +19°C° 0,1 mm 1 m/S 731 mmHg 79%
    06:00 +20°C° 0,1 mm 1 m/S 731 mmHg 77%
    07:00 +19°C° 0,1 mm 0 m/S 731 mmHg 75%
    08:00 +23°C° 0,3 mm 1 m/S 731 mmHg 71%
    09:00 +24°C° 0,3 mm 1 m/S 731 mmHg 67%
    10:00 +26°C° 0,3 mm 1 m/S 731 mmHg 63%
    11:00 +27°C° 0,6 mm 1 m/S 731 mmHg 59%
    12:00 +28°C° 0,6 mm 1 m/S 731 mmHg 55%
    13:00 +30°C° 0,6 mm 1 m/S 731 mmHg 51%
    14:00 +30°C° 0,4 mm 1 m/S 730 mmHg 51%
    15:00 +27°C° 0,4 mm 0 m/S 730 mmHg 51%
    16:00 +27°C° 0,4 mm 0 m/S 730 mmHg 50%
    17:00 +28°C° 0,2 mm 1 m/S 729 mmHg 55%
    18:00 +27°C° 0,2 mm 1 m/S 729 mmHg 61%
    19:00 +26°C° 0,2 mm 1 m/S 729 mmHg 66%
    20:00 +24°C° 0,4 mm 1 m/S 729 mmHg 70%
    21:00 +23°C° 0,4 mm 1 m/S 729 mmHg 74%
    22:00 +21°C° 0,4 mm 1 m/S 729 mmHg 78%
    23:00 +21°C° 0,4 mm 1 m/S 729 mmHg 81%

    Morgen, 21 Juli, Samstag

    Zeit Temperatur Niederschläge Wind Luftdruck Luftfeuchtigkeit
    00:00 +21°C° 0,4 mm 1 m/S 728 mmHg 83%
    01:00 +20°C° 0,4 mm 1 m/S 728 mmHg 85%
    02:00 +20°C° 0,3 mm 1 m/S 728 mmHg 87%
    03:00 +20°C° 0,3 mm 1 m/S 728 mmHg 89%
    04:00 +19°C° 0,3 mm 1 m/S 728 mmHg 90%
    05:00 +20°C° 0,5 mm 1 m/S 728 mmHg 89%
    06:00 +20°C° 0,5 mm 1 m/S 728 mmHg 88%
    07:00 +21°C° 0,5 mm 1 m/S 728 mmHg 87%
    08:00 +22°C° 0,6 mm 1 m/S 729 mmHg 83%
    09:00 +23°C° 0,6 mm 1 m/S 729 mmHg 79%
    10:00 +24°C° 0,6 mm 2 m/S 729 mmHg 75%
    11:00 +24°C° 0,9 mm 1 m/S 729 mmHg 73%
    12:00 +25°C° 0,9 mm 1 m/S 729 mmHg 71%
    13:00 +25°C° 0,9 mm 1 m/S 729 mmHg 69%
    14:00 +25°C° 1,1 mm 2 m/S 729 mmHg 72%
    15:00 +24°C° 1,1 mm 2 m/S 729 mmHg 76%
    16:00 +24°C° 1,1 mm 2 m/S 729 mmHg 79%
    17:00 +23°C° 0,8 mm 2 m/S 729 mmHg 83%
    18:00 +21°C° 0,8 mm 2 m/S 729 mmHg 86%
    19:00 +20°C° 0,8 mm 2 m/S 729 mmHg 89%
    20:00 +20°C° 0,5 mm 2 m/S 729 mmHg 90%
    21:00 +19°C° 0,5 mm 2 m/S 729 mmHg 91%
    22:00 +19°C° 0,5 mm 1 m/S 729 mmHg 92%
    23:00 +19°C° 0,1 mm 1 m/S 729 mmHg 93%

    übermorgen, 22 Juli, Sonntag

    Zeit Temperatur Niederschläge Wind Luftdruck Luftfeuchtigkeit
    00:00 +19°C° 0,1 mm 1 m/S 729 mmHg 93%
    01:00 +18°C° 0,1 mm 1 m/S 729 mmHg 93%
    02:00 +18°C° 0,2 mm 1 m/S 729 mmHg 94%
    03:00 +18°C° 0,2 mm 1 m/S 729 mmHg 94%
    04:00 +18°C° 0,2 mm 1 m/S 729 mmHg 94%
    05:00 +18°C° 0,3 mm 1 m/S 729 mmHg 93%
    06:00 +19°C° 0,3 mm 1 m/S 729 mmHg 92%
    07:00 +19°C° 0,3 mm 1 m/S 729 mmHg 91%
    08:00 +20°C° 0,4 mm 1 m/S 729 mmHg 88%
    09:00 +20°C° 0,4 mm 2 m/S 729 mmHg 85%
    10:00 +21°C° 0,4 mm 2 m/S 729 mmHg 82%
    11:00 +24°C° 0,7 mm 2 m/S 729 mmHg 77%
    12:00 +25°C° 0,7 mm 2 m/S 729 mmHg 73%
    13:00 +26°C° 0,7 mm 2 m/S 729 mmHg 68%
    14:00 +26°C° 0,9 mm 2 m/S 729 mmHg 69%
    15:00 +26°C° 0,9 mm 2 m/S 728 mmHg 69%
    16:00 +26°C° 0,9 mm 2 m/S 728 mmHg 69%
    17:00 +25°C° 0,9 mm 2 m/S 728 mmHg 74%
    18:00 +24°C° 0,9 mm 2 m/S 728 mmHg 79%
    19:00 +23°C° 0,9 mm 1 m/S 729 mmHg 83%
    20:00 +22°C° 0,5 mm 1 m/S 729 mmHg 85%
    21:00 +21°C° 0,5 mm 1 m/S 729 mmHg 87%
    22:00 +20°C° 0,5 mm 1 m/S 729 mmHg 89%
    23:00 +19°C° 0 mm 1 m/S 729 mmHg 90%

    23 Juli, Montag

    Zeit Temperatur Niederschläge Wind Luftdruck Luftfeuchtigkeit
    00:00 +17°C° 0 mm 0 m/S 729 mmHg 90%
    01:00 +16°C° 0 mm 0 m/S 729 mmHg 91%
    02:00 +16°C° 0 mm 0 m/S 730 mmHg 91%
    03:00 +16°C° 0 mm 0 m/S 730 mmHg 91%
    04:00 +16°C° 0 mm 0 m/S 730 mmHg 92%
    05:00 +17°C° 0 mm 0 m/S 730 mmHg 90%
    06:00 +18°C° 0 mm 0 m/S 730 mmHg 89%
    07:00 +21°C° 0 mm 1 m/S 731 mmHg 87%
    08:00 +22°C° 0,1 mm 1 m/S 731 mmHg 79%
    09:00 +24°C° 0,1 mm 1 m/S 731 mmHg 71%
    10:00 +26°C° 0,1 mm 1 m/S 731 mmHg 63%
    11:00 +27°C° 0,1 mm 2 m/S 731 mmHg 58%
    12:00 +28°C° 0,1 mm 2 m/S 731 mmHg 54%
    13:00 +28°C° 0,1 mm 2 m/S 731 mmHg 49%
    14:00 +28°C° 0,1 mm 2 m/S 731 mmHg 50%
    15:00 +28°C° 0,1 mm 2 m/S 731 mmHg 51%
    16:00 +28°C° 0,1 mm 2 m/S 731 mmHg 51%
    17:00 +27°C° 0 mm 1 m/S 731 mmHg 57%
    18:00 +26°C° 0 mm 1 m/S 731 mmHg 63%
    19:00 +25°C° 0 mm 1 m/S 731 mmHg 68%
    20:00 +24°C° 0 mm 1 m/S 731 mmHg 72%
    21:00 +22°C° 0 mm 1 m/S 731 mmHg 75%
    22:00 +21°C° 0 mm 1 m/S 731 mmHg 79%
    23:00 +20°C° 0 mm 1 m/S 731 mmHg 80%

    24 Juli, Dienstag

    Zeit Temperatur Niederschläge Wind Luftdruck Luftfeuchtigkeit
    00:00 +20°C° 0 mm 1 m/S 730 mmHg 82%
    01:00 +17°C° 0 mm 0 m/S 730 mmHg 83%
    02:00 +17°C° 0 mm 0 m/S 730 mmHg 84%
    03:00 +18°C° 0 mm 1 m/S 730 mmHg 85%
    04:00 +18°C° 0 mm 1 m/S 730 mmHg 86%
    05:00 +19°C° 0 mm 1 m/S 730 mmHg 83%
    06:00 +20°C° 0 mm 1 m/S 730 mmHg 80%
    07:00 +22°C° 0 mm 1 m/S 730 mmHg 77%
    08:00 +23°C° 0 mm 1 m/S 730 mmHg 70%
    09:00 +25°C° 0 mm 1 m/S 730 mmHg 64%
    10:00 +27°C° 0 mm 2 m/S 729 mmHg 57%
    11:00 +28°C° 0 mm 2 m/S 729 mmHg 54%
    12:00 +29°C° 0 mm 2 m/S 729 mmHg 50%
    13:00 +30°C° 0 mm 2 m/S 729 mmHg 47%
    14:00 +30°C° 0 mm 2 m/S 729 mmHg 47%
    15:00 +30°C° 0 mm 2 m/S 728 mmHg 48%
    16:00 +30°C° 0 mm 2 m/S 728 mmHg 48%
    17:00 +29°C° 0 mm 2 m/S 728 mmHg 54%
    18:00 +27°C° 0 mm 1 m/S 728 mmHg 60%
    19:00 +26°C° 0 mm 1 m/S 728 mmHg 67%
    20:00 +25°C° 0,1 mm 1 m/S 728 mmHg 70%
    21:00 +23°C° 0,1 mm 1 m/S 729 mmHg 73%
    22:00 +22°C° 0,1 mm 1 m/S 729 mmHg 77%
    23:00 +21°C° 0 mm 1 m/S 729 mmHg 78%

    25 Juli, Mittwoch

    Zeit Temperatur Niederschläge Wind Luftdruck Luftfeuchtigkeit
    00:00 +21°C° 0 mm 1 m/S 729 mmHg 79%
    01:00 +20°C° 0 mm 1 m/S 729 mmHg 81%
    02:00 +20°C° 0 mm 1 m/S 729 mmHg 82%
    03:00 +20°C° 0 mm 1 m/S 729 mmHg 82%
    04:00 +20°C° 0 mm 1 m/S 729 mmHg 83%
    05:00 +21°C° 0,1 mm 1 m/S 730 mmHg 81%
    06:00 +22°C° 0,1 mm 1 m/S 730 mmHg 80%
    07:00 +23°C° 0,1 mm 1 m/S 730 mmHg 79%
    08:00 +24°C° 0,4 mm 1 m/S 730 mmHg 74%
    09:00 +26°C° 0,4 mm 1 m/S 730 mmHg 69%
    10:00 +27°C° 0,4 mm 1 m/S 730 mmHg 64%
    11:00 +28°C° 0,8 mm 1 m/S 730 mmHg 62%
    12:00 +28°C° 0,8 mm 1 m/S 730 mmHg 60%
    13:00 +29°C° 0,8 mm 1 m/S 730 mmHg 58%
    14:00 +29°C° 0,4 mm 1 m/S 730 mmHg 59%
    15:00 +28°C° 0,4 mm 1 m/S 730 mmHg 61%
    16:00 +28°C° 0,4 mm 1 m/S 730 mmHg 63%
    17:00 +27°C° 0,2 mm 1 m/S 731 mmHg 66%
    18:00 +27°C° 0,2 mm 1 m/S 731 mmHg 69%
    19:00 +26°C° 0,2 mm 1 m/S 731 mmHg 72%
    20:00 +24°C° 0,6 mm 1 m/S 731 mmHg 76%
    21:00 +23°C° 0,6 mm 1 m/S 731 mmHg 80%
    22:00 +21°C° 0,6 mm 1 m/S 731 mmHg 84%
    23:00 +21°C° 0,5 mm 1 m/S 731 mmHg 86%
    Mehr zeigen